Home > Time Zones > World Clock > Weather > U.S.A. > Bend > Past weeks

Flag for U.S.A. Weather past 2 weeks in Bend, Oregon, U.S.A.

Now
31 °F

Ice fog.


Feels Like: 31 °F
Forecast: 33 / 49 °F
Wind: No wind

Location: Roberts Field Airport

Current Time: Feb 1, 2015 at 9:22:49 AM

Latest Report: Feb 1, 2015 at 8:59 AM


Visibility: 3 mi

Pressure: 30.15 "Hg

Humidity: 100%

Dew point: 31 °F

Location of BendLocation

Historic Weather in Bend — Graph

°F

Bend temperature yesterday

Maximum temperature yesterday: 38 °F (at 12:56 PM)
Minimum temperature yesterday: 26 °F (at 6:56 AM)
Average temperature yesterday: 32 °F

Past Weeks' High & Low Weather Summary

 TemperatureHumidityPressure
High68 °F (Jan 25, 2:56 PM)100% (Jan 21, 4:56 AM)30.54 "Hg (Jan 21, 4:56 AM)
Low24 °F (Jan 20, 1:56 AM)31% (Jan 18, 12:56 PM)29.86 "Hg (Jan 17, 9:56 PM)
Average40 °F78%30.28 "Hg
* Reported Jan 17 7:56 AM — Feb 1 7:56 AM, Bend, Weather by CustomWeather, © 2014

Note: Actual official high and low records may vary slightly from our data, if they occured in-between our weather recording intervals... More about our weather records

Advertising

Bend weather history for previous 24 hours

 ConditionsComfort  
Time TempWeatherWind HumidityBarometerVisibility
7:56 AM
Feb 1
31 °FIce fog.6 mph100%30.17 "Hg0 mi
6:56 AM31 °FIce fog.No wind100%30.18 "Hg1 mi
5:56 AM31 °FIce fog.3 mph100%30.19 "Hg1 mi
4:56 AM31 °FIce fog.No wind100%30.22 "Hg1 mi
3:56 AM31 °FIce fog.3 mph100%30.20 "Hg1 mi
2:56 AM31 °FIce fog.No wind100%30.20 "Hg1 mi
1:56 AM31 °FIce fog.No wind100%30.22 "Hg1 mi
12:56 AM30 °FIce fog.3 mph100%30.22 "Hg1 mi
11:56 PM
Jan 31
30 °FIce fog.3 mph100%30.22 "Hg2 mi
10:56 PM30 °FIce fog.5 mph100%30.23 "Hg1 mi
9:56 PM30 °FIce fog.No wind100%30.23 "Hg0 mi
9:03 PM30 °FIce fog.No wind100%30.18 "Hg1 mi
8:56 PM30 °FIce fog.3 mph100%30.26 "Hg1 mi
7:56 PM31 °FIce fog.3 mph96%30.25 "Hg4 mi
6:56 PM31 °FLow clouds.7 mph96%30.26 "Hg7 mi
5:56 PM31 °FClear.3 mph96%30.25 "Hg10 mi
4:56 PM34 °FSunny.7 mph85%30.23 "Hg10 mi
3:56 PM36 °FSunny.7 mph82%30.23 "Hg10 mi
2:56 PM38 °FSunny.6 mph76%30.23 "Hg10 mi
1:56 PM38 °FSunny.10 mph79%30.24 "Hg10 mi
12:56 PM38 °FSunny.7 mph79%30.24 "Hg10 mi
11:56 AM36 °FSunny.7 mph79%30.27 "Hg10 mi
10:56 AM35 °FSunny.8 mph82%30.30 "Hg10 mi
9:56 AM34 °FSunny.7 mph82%30.28 "Hg10 mi
Weather by CustomWeather, © 2014

See weather overviewHow to use our weather pages